Location: Olomouc
(49.5830°N, 17.2500°E)
Time: 05:12:38
(UTC+01:00)

ISS - Pass Details

Date: 04 November 2021
Orbit: 417 x 423 km, 51.6° (Epoch: 01 December)

Event Time Altitude Azimuth Distance (km) Brightness Sun altitude
Exits shadow 05:27:05 23° 283° (WNW) 933 -2.6 -12.9°
Maximum altitude 05:29:00 73° 203° (SSW) 443 -3.7 -12.6°
Drops below altitude 10° 05:32:21 10° 118° (ESE) 1,496 0.3 -12.0°
Sets 05:34:27 0° 116° (ESE) 2,356 1.7 -11.7°
